Back to catalog

CZ-6A DEB

AlivePO
NORAD 60900·DEBRIS·🇨🇳 China

Launched Aug 6, 2024 from Taiyuan Satellite Launch Center

Loading…

Next Passes (next 24 hours)

TLE

FreshSource: Space-Track

Epoch: Sep 14, 2026, 10:33 UTC

1 60900U 24140LF  26257.44004560  .00000196  00000-0  75572-4 0  9997
2 60900  88.9114 255.9774 0016465 185.1812 174.9214 14.26195440107872

Track CZ-6A DEB in real time with AllMySat

Download on the App Store